Regional Weather Roundup
Issued by NWS Upton, NY

Current Version | Previous Version | Graphics & Text | Print | Product List | Glossary Off
Versions: 1 2 3 4 5 6 7 8 9 10 11 12 13 14 15 16 17 18 19 20 21 22 23 24 25 26 27

000
ASUS41 KOKX 252205
RWROKX

REGIONAL WEATHER ROUNDUP
NATIONAL WEATHER SERVICE NEW YORK NY
600 PM EDT SAT OCT 25 2014

NOTE: "FAIR" INDICATES FEW OR NO CLOUDS BELOW 12,000 FEET WITH NO
SIGNIFICANT WEATHER AND/OR OBSTRUCTIONS TO VISIBILITY.

NYZ071-072-176-178-NJZ106-104-252300-
NEW YORK CITY METRO AREA


CITY           SKY/WX    TMP DP  RH WIND       PRES   REMARKS
CENTRAL PARK   CLEAR     65  42  43 VRB3      29.67F
LAGUARDIA APRT PTCLDY    66  42  41 SW10      29.64F
KENNEDY INTL   PTCLDY    63  46  54 SW13      29.67F
NEWARK/LIBERTY PTCLDY    65  43  44 SW14      29.65F
BRNX BOT. GARD   N/A     64  43  45 SW16      29.67R
TETERBORO      CLEAR     65  43  44 SW9       29.64S
$$

NYZ177-179-078>081-252300-
LONG ISLAND NEW YORK

CITY           SKY/WX    TMP DP  RH WIND       PRES   REMARKS
FARMINGDALE    CLEAR     64  44  48 SW10G20   29.66F
ISLIP          PTCLDY    60  46  59 SW8       29.64F
SHIRLEY        CLEAR     59  46  62 SW6       29.66F
WESTHAMPTON    CLEAR     59  45  59 SW7       29.67F
MONTAUK POINT    N/A     59  49  69 VRB5      29.65F
$$

NYZ052-065-067-252300-
HUDSON VALLEY

CITY           SKY/WX    TMP DP  RH WIND       PRES   REMARKS
WHITE PLAINS   PTCLDY    62  42  47 VRB5      29.63F
NEWBURGH       CLEAR     61  45  55 W8        29.63F
MONTGOMERY     MOCLDY    60  43  53 S3        29.61F
POUGHKEEPSIE   PTCLDY    64  42  44 SW3       29.61F
ALBANY         MOCLDY    61  44  53 S6        29.57F
$$

NJZ001-105-106-008-010-013-015-019>022-104-252300-
NEW JERSEY

CITY           SKY/WX    TMP DP  RH WIND       PRES   REMARKS
NEWARK/LIBERTY PTCLDY    65  43  44 SW14      29.65F
TETERBORO      CLEAR     65  43  44 SW9       29.64S
CALDWELL       CLEAR     65  42  43 SW3       29.65F
MORRISTOWN     CLEAR     64  43  45 W8        29.65F
SOMERVILLE     CLEAR     65  43  44 VRB3      29.64F
SUSSEX         PTCLDY    65  42  43 CALM      29.63F
ANDOVER          N/A     63  42  46 VRB5      29.64F
TRENTON        CLEAR     65  42  43 SW7       29.67F
MILLVILLE      CLEAR     64  45  49 SW5       29.73F
ATLANTIC CITY  CLEAR     64  44  48 SW8       29.72F
WRIGHTSTOWN    CLEAR     62  46  56 SW8       29.67F HAZE
TOMS RIVER     CLEAR     63  45  51 SW5       29.70S
BELMAR         CLEAR     64  43  45 SW6       29.68F
$$

PAZ047>061-062-071-252300-
EASTERN PENNSYLVANIA

CITY           SKY/WX    TMP DP  RH WIND       PRES   REMARKS
PHILADELPHIA   PTCLDY    66  46  48 SW9       29.70F
ALLENTOWN      MOCLDY    64  43  46 SW12      29.66F
SCRANTON       CLOUDY    65  43  44 SW9       29.63F
$$

CTZ002-004>006-009-010-012-RIZ004-006-007-MAZ004-011-015-252300-
SOUTHERN NEW ENGLAND
 IN CT

CITY           SKY/WX    TMP DP  RH WIND       PRES   REMARKS
BRADLEY INTL   PTCLDY    62  42  47 SW7       29.60F
HARTFORD       CLEAR     62  41  46 SW12      29.61F
DANBURY        CLEAR     58  42  55 CALM      29.64F
WTRBRY/OXFORD  PTCLDY    59  39  47 CALM      29.63F
BRIDGEPORT     CLEAR     63  50  62 SW9       29.64F
MERIDEN        CLEAR     58  43  57 VRB3      29.63S
NEW HAVEN      PTCLDY    64  49  57 SW7       29.64F
CHESTER        FAIR      59  46  63 SW6       29.64S
GROTON         CLEAR     59  49  69 W8        29.63F
WILLIMANTIC    CLEAR     62  41  46 W5        29.62S

 IN RI

CITY           SKY/WX    TMP DP  RH WIND       PRES   REMARKS
PROVIDENCE     PTCLDY    58  43  57 S9        29.61F
BLOCK ISLAND   CLEAR     61  45  55 W12       29.64S
WESTERLY       CLEAR     60  47  61 SW7       29.63F

 IN MA

CITY           SKY/WX    TMP DP  RH WIND       PRES   REMARKS
BOSTON         MOCLDY    61  42  49 SW8G18    29.58S
WORCESTER      CLEAR     55  42  61 W7        29.61S
WESTFIELD      CLEAR     60  42  51 SW7       29.61S
PROVINCETOWN   CLEAR     55   1  11 SW10      29.59S
NANTUCKET      CLEAR     58  48  69 SW15      29.63F
$$

ANZ330-335-338-340-345-350-353-355-252300-
COASTAL MARINE OBSERVATIONS


STATION/POSITION TIME  SKY/WX   TEMP    WIND        PRES    VSBY  WAVE
                                AIR SEA DIR/SP/G                  HT/PER
                 (UTC)          (F)     (DEG/KT/KT) (MB)    (MI)  (FT/S)
NY HARB ENTRANCE NOT AVBL
4S FIRE IS       2200               62                N/A           2/ 4
20S FIRE ISLAND  2200            63 63  220/ 17/ 19 1004.4          3/ 4
23SW MTP         2200                                 N/A           4/ 5
HUDSON CANYON    2200            62 65  230/ 19/ 23 1005.6          3/ 5
EXECUTION ROCKS  2200            66 62  250/ 16/ 23   N/A
WESTERN LI SOUND 2200            65     230/ 12/ 14   N/A           1
CENTRAL LI SOUND 2200            63 63  230/ 14/ 16   N/A           2/ 3
EASTERN LI SOUND 2100            62 62  240/ 16/ 19   N/A
ROBBINS REEF     2200            66     240/ 13/ 17 1003.0
$$


>>>>>>>>>>>>>>>>>>>>>>>>>>>> KEY <<<<<<<<<<<<<<<<<<<<<<<<<<<
>                                                          <
>     SKY/WX - SKY CONDITION/PRESENT WEATHER               <
>     TMP    - TEMPERATURE IN FAHRENHEIT                   <
>     DP     - DEWPOINT IN FAHRENHEIT                      <
>     RH     - RELATIVE HUMIDITY IN PERCENT                <
>     WIND   - DIRECTION AND SPEED IN MPH                  <
>     PRES   - MEAN SEA LEVEL PRESSURE IN INCHES OF HG     <
>     WCI    - WIND CHILL INDEX                            <
>     VSB    - VISIBILITY IN MILES                         <
>     HX     - HEAT INDEX                                  <
>     TC     - TEMPERATURE IN CELSIUS                      <
>     VRB    - VARIABLE WIND DIRECTION                     <
>                                                          <
>>>>>>>>>>>>>>>>>>>>>>>>>>>> KEY <<<<<<<<<<<<<<<<<<<<<<<<<<<





USA.gov is the U.S. government's official web portal to all federal, state and local government web resources and services.